Simultaneous Nadir Overpasses (SNOs) Predictions

Prediction of SNOs between METOP-B and TERRA Satellite Orbit:

Table of predicted SNOs for the next 14.0 days since TLE Epoch: 5/7/2022
Index Date (METOP-B) Time (METOP-B) Lat,Lon (METOP-B) SZA (METOP-B ) Date (TERRA) Time (TERRA) Lat,Lon (TERRA) SZA (TERRA ) Distance(km) Time Diff (sec)
1 05/08/2022 16:29:26 -81.17, 153.49 113.74 05/08/2022 16:30:37 -81.16, 153.55 113.70 1.17 71
2 05/08/2022 17:20:05 81.19, -38.42 66.36 05/08/2022 17:20:02 81.19, -38.36 66.36 1.02 3
3 05/11/2022 12:03:45 -81.18,-139.75 114.42 05/11/2022 12:04:44 -81.18,-139.67 114.38 1.72 59
4 05/11/2022 12:54:25 81.19, 27.93 65.62 05/11/2022 12:54:10 81.19, 28.02 65.62 1.61 15
5 05/14/2022 07:38:06 -81.17, -73.43 115.13 05/14/2022 07:38:53 -81.17, -73.38 115.10 0.81 47
6 05/14/2022 08:28:45 81.19, 94.60 64.96 05/14/2022 08:28:18 81.20, 94.64 64.95 0.90 27
7 05/17/2022 03:12:26 -81.18, -6.78 115.75 05/17/2022 03:13:01 -81.18, -6.87 115.75 1.43 35
8 05/17/2022 04:03:05 81.20, 161.22 64.33 05/17/2022 04:02:26 81.20, 161.13 64.30 1.46 39
9 05/19/2022 22:46:46 -81.17, 59.42 116.39 05/19/2022 22:47:08 -81.17, 59.52 116.37 1.55 22



Historial Predications of SNOs between METOP-B and TERRA
